| time (UTC) | temp C | wind direction | speed KPH | gust KPH | rain 1hr cm | rain 24hr cm | rain mn cm | humidity % | barometer mb |
| 20260504024755 | 12 | 193 | 3.2 | 3.2 | 0.00 | 0.00 | 0.00 | 55 | 1050.8 |
| 20260504024252 | 12 | 192 | 3.2 | 3.2 | 0.00 | 0.00 | 0.00 | 55 | 1050.6 |
| 20260504023749 | 12 | 193 | 3.2 | 3.2 | 0.00 | 0.00 | 0.00 | 56 | 1051.1 |
| 20260504023245 | 12 | 191 | 3.2 | 3.2 | 0.00 | 0.00 | 0.00 | 55 | 1050.8 |
| 20260504022741 | 12 | 209 | 3.2 | 3.2 | 0.00 | 0.00 | 0.00 | 54 | 1051.0 |
| 20260504022238 | 12 | 209 | 3.2 | 3.2 | 0.00 | 0.00 | 0.00 | 55 | 1050.8 |
| 20260504021735 | 12 | 209 | 3.2 | 1.6 | 0.00 | 0.00 | 0.00 | 54 | 1051.0 |
| 20260504021232 | 12 | 209 | 3.2 | 3.2 | 0.00 | 0.00 | 0.00 | 54 | 1050.9 |
| 20260504020729 | 12 | 210 | 0.0 | 1.6 | 0.00 | 0.00 | 0.00 | 52 | 1051.1 |
| 20260504020225 | 12 | 210 | 0.0 | 1.6 | 0.00 | 0.00 | 0.00 | 51 | 1051.0 |
| 20260504015721 | 12 | 210 | 0.0 | 0.0 | 0.00 | 0.00 | 0.00 | 51 | 1050.8 |
| 20260504015218 | 12 | 210 | 0.0 | 0.0 | 0.00 | 0.00 | 0.00 | 51 | 1051.0 |
| 20260504014714 | 12 | 210 | 0.0 | 0.0 | 0.00 | 0.00 | 0.00 | 51 | 1050.5 |
| 20260504014211 | 12 | 210 | 0.0 | 0.0 | 0.00 | 0.00 | 0.00 | 54 | 1050.6 |
| 20260504013708 | 12 | 210 | 0.0 | 0.0 | 0.00 | 0.00 | 0.00 | 56 | 1050.3 |
| 20260504013206 | 12 | 210 | 0.0 | 0.0 | 0.00 | 0.00 | 0.00 | 55 | 1050.6 |
| 20260504012702 | 12 | 210 | 0.0 | 0.0 | 0.00 | 0.00 | 0.00 | 54 | 1050.5 |
| 20260504012200 | 12 | 210 | 0.0 | 0.0 | 0.00 | 0.00 | 0.00 | 56 | 1050.3 |
| 20260504011657 | 12 | 210 | 0.0 | 0.0 | 0.00 | 0.00 | 0.00 | 54 | 1050.3 |
| 20260504011153 | 12 | 210 | 0.0 | 0.0 | 0.00 | 0.00 | 0.00 | 54 | 1050.1 |
| 20260504010649 | 12 | 210 | 1.6 | 1.6 | 0.00 | 0.00 | 0.00 | 51 | 1050.1 |
| 20260504010145 | 12 | 210 | 1.6 | 3.2 | 0.00 | 0.00 | 0.00 | 51 | 1049.9 |
| 20260504005642 | 13 | 210 | 1.6 | 1.6 | 0.00 | 0.00 | 0.00 | 50 | 1050.2 |
| 20260504005139 | 13 | 210 | 1.6 | 1.6 | 0.00 | 0.00 | 0.00 | 50 | 1050.1 |
| 20260504004637 | 13 | 210 | 1.6 | 1.6 | 0.00 | 0.00 | 0.00 | 50 | 1050.0 |
| 20260504004134 | 13 | 210 | 1.6 | 3.2 | 0.00 | 0.00 | 0.00 | 48 | 1050.0 |
| 20260504003630 | 13 | 210 | 1.6 | 3.2 | 0.00 | 0.00 | 0.00 | 48 | 1049.7 |
| 20260504003127 | 13 | 210 | 0.0 | 0.0 | 0.00 | 0.00 | 0.00 | 46 | 1050.0 |
| 20260504002624 | 13 | 210 | 1.6 | 1.6 | 0.00 | 0.00 | 0.00 | 47 | 1049.8 |
| 20260504002121 | 14 | 205 | 3.2 | 3.2 | 0.00 | 0.00 | 0.00 | 48 | 1049.8 |
| 20260504001619 | 14 | 203 | 3.2 | 3.2 | 0.00 | 0.00 | 0.00 | 45 | 1049.8 |
| 20260504001114 | 14 | 203 | 3.2 | 3.2 | 0.00 | 0.00 | 0.00 | 46 | 1049.8 |
| 20260504000612 | 15 | 205 | 3.2 | 3.2 | 0.00 | 0.00 | 0.00 | 46 | 1049.9 |
| 20260504000110 | 15 | 202 | 3.2 | 3.2 | 0.00 | 0.00 | 0.00 | 46 | 1050.1 |
| 20260503235608 | 15 | 205 | 1.6 | 3.2 | 0.00 | 0.00 | 0.00 | 45 | 1050.0 |
| 20260503235104 | 15 | 204 | 1.6 | 3.2 | 0.00 | 0.00 | 0.00 | 46 | 1049.8 |
| 20260503234602 | 15 | 200 | 3.2 | 3.2 | 0.00 | 0.00 | 0.00 | 46 | 1049.7 |
| 20260503234100 | 15 | 207 | 3.2 | 3.2 | 0.00 | 0.00 | 0.00 | 44 | 1049.9 |
| 20260503233556 | 16 | 210 | 3.2 | 3.2 | 0.00 | 0.00 | 0.00 | 41 | 1049.9 |
| 20260503233052 | 16 | 227 | 1.6 | 3.2 | 0.00 | 0.00 | 0.00 | 43 | 1050.2 |
| 20260503232549 | 15 | 228 | 0.0 | 0.0 | 0.00 | 0.00 | 0.00 | 42 | 1050.2 |
| 20260503232047 | 15 | 228 | 0.0 | 1.6 | 0.00 | 0.00 | 0.00 | 45 | 1050.4 |
| 20260503231545 | 15 | 251 | 1.6 | 1.6 | 0.00 | 0.00 | 0.00 | 42 | 1050.0 |
| 20260503231041 | 16 | 251 | 0.0 | 1.6 | 0.00 | 0.00 | 0.00 | 45 | 1050.5 |
| 20260503230538 | 16 | 251 | 0.0 | 1.6 | 0.00 | 0.00 | 0.00 | 47 | 1050.6 |
| 20260503230036 | 16 | 256 | 1.6 | 1.6 | 0.00 | 0.00 | 0.00 | 42 | 1050.6 |
| 20260503225532 | 16 | 223 | 0.0 | 1.6 | 0.00 | 0.00 | 0.00 | 42 | 1050.5 |
| 20260503225027 | 16 | 217 | 1.6 | 1.6 | 0.00 | 0.00 | 0.00 | 43 | 1050.6 |
| 20260503224525 | 17 | 213 | 1.6 | 3.2 | 0.00 | 0.00 | 0.00 | 35 | 1050.8 |
| 20260503224023 | 17 | 213 | 1.6 | 3.2 | 0.00 | 0.00 | 0.00 | 36 | 1050.8 |
| 20260503223520 | 17 | 156 | 0.0 | 0.0 | 0.00 | 0.00 | 0.00 | 39 | 1050.9 |
| 20260503223016 | 17 | 216 | 3.2 | 3.2 | 0.00 | 0.00 | 0.00 | 34 | 1051.0 |
| 20260503222514 | 18 | 247 | 3.2 | 3.2 | 0.00 | 0.00 | 0.00 | 34 | 1051.1 |
| 20260503222012 | 18 | 208 | 3.2 | 3.2 | 0.00 | 0.00 | 0.00 | 36 | 1051.2 |
| 20260503221510 | 17 | 263 | 0.0 | 1.6 | 0.00 | 0.00 | 0.00 | 37 | 1051.0 |
| 20260503221007 | 17 | 275 | 3.2 | 4.8 | 0.00 | 0.00 | 0.00 | 41 | 1051.1 |
| 20260503220503 | 18 | 203 | 4.8 | 4.8 | 0.00 | 0.00 | 0.00 | 33 | 1051.1 |
| 20260503220000 | 17 | 236 | 1.6 | 3.2 | 0.00 | 0.00 | 0.00 | 37 | 1051.4 |
| 20260503215457 | 17 | 245 | 1.6 | 4.8 | 0.00 | 0.00 | 0.00 | 37 | 1051.5 |
| 20260503214954 | 17 | 210 | 3.2 | 3.2 | 0.00 | 0.00 | 0.00 | 34 | 1051.3 |
| 20260503214452 | 17 | 199 | 6.4 | 6.4 | 0.00 | 0.00 | 0.00 | 32 | 1051.4 |
| 20260503213949 | 18 | 198 | 3.2 | 3.2 | 0.00 | 0.00 | 0.00 | 32 | 1051.5 |
| 20260503213447 | 17 | 216 | 3.2 | 4.8 | 0.00 | 0.00 | 0.00 | 39 | 1051.3 |
| 20260503212943 | 17 | 214 | 4.8 | 6.4 | 0.00 | 0.00 | 0.00 | 34 | 1051.1 |
| 20260503212441 | 17 | 234 | 1.6 | 3.2 | 0.00 | 0.00 | 0.00 | 34 | 1051.1 |
| 20260503211938 | 18 | 225 | 3.2 | 4.8 | 0.00 | 0.00 | 0.00 | 38 | 1051.6 |
| 20260503211435 | 17 | 229 | 3.2 | 6.4 | 0.00 | 0.00 | 0.00 | 37 | 1051.7 |
| 20260503210931 | 18 | 235 | 3.2 | 6.4 | 0.00 | 0.00 | 0.00 | 37 | 1051.5 |
| 20260503210428 | 17 | 272 | 3.2 | 6.4 | 0.00 | 0.00 | 0.00 | 36 | 1051.7 |
| 20260503205927 | 17 | 240 | 4.8 | 6.4 | 0.00 | 0.00 | 0.00 | 38 | 1051.8 |
| 20260503205425 | 18 | 265 | 1.6 | 4.8 | 0.00 | 0.00 | 0.00 | 35 | 1051.8 |
| 20260503204921 | 17 | 202 | 3.2 | 3.2 | 0.00 | 0.00 | 0.00 | 36 | 1051.6 |
| 20260503204418 | 18 | 200 | 4.8 | 6.4 | 0.00 | 0.00 | 0.00 | 32 | 1051.8 |
| 20260503203915 | 17 | 265 | 3.2 | 4.8 | 0.00 | 0.00 | 0.00 | 40 | 1051.9 |
| 20260503203413 | 17 | 218 | 3.2 | 6.4 | 0.00 | 0.00 | 0.00 | 33 | 1051.7 |
| 20260503202909 | 17 | 238 | 3.2 | 3.2 | 0.00 | 0.00 | 0.00 | 34 | 1052.0 |
| 20260503202408 | 17 | 218 | 3.2 | 4.8 | 0.00 | 0.00 | 0.00 | 37 | 1052.5 |
| 20260503201906 | 17 | 197 | 6.4 | 6.4 | 0.00 | 0.00 | 0.00 | 32 | 1052.6 |
| 20260503201402 | 17 | 210 | 1.6 | 4.8 | 0.00 | 0.00 | 0.00 | 32 | 1052.7 |
| 20260503200900 | 18 | 203 | 6.4 | 6.4 | 0.00 | 0.00 | 0.00 | 30 | 1052.7 |
| 20260503200355 | 18 | 249 | 3.2 | 4.8 | 0.00 | 0.00 | 0.00 | 36 | 1052.7 |
| 20260503195853 | 18 | 210 | 1.6 | 4.8 | 0.00 | 0.00 | 0.00 | 32 | 1052.8 |
| 20260503195349 | 18 | 272 | 4.8 | 4.8 | 0.00 | 0.00 | 0.00 | 39 | 1053.0 |
| 20260503194847 | 18 | 274 | 3.2 | 6.4 | 0.00 | 0.00 | 0.00 | 36 | 1053.1 |
| 20260503194343 | 17 | 249 | 3.2 | 6.4 | 0.00 | 0.00 | 0.00 | 40 | 1053.3 |
| 20260503193839 | 17 | 206 | 3.2 | 6.4 | 0.00 | 0.00 | 0.00 | 39 | 1053.1 |
| 20260503193335 | 17 | 201 | 4.8 | 6.4 | 0.00 | 0.00 | 0.00 | 38 | 1053.2 |
| 20260503192831 | 17 | 247 | 4.8 | 6.4 | 0.00 | 0.00 | 0.00 | 37 | 1053.2 |
| 20260503192327 | 17 | 196 | 4.8 | 9.7 | 0.00 | 0.00 | 0.00 | 36 | 1053.4 |
| 20260503191823 | 17 | 196 | 8.0 | 9.7 | 0.00 | 0.00 | 0.00 | 33 | 1053.4 |
| 20260503191321 | 17 | 206 | 6.4 | 6.4 | 0.00 | 0.00 | 0.00 | 34 | 1053.6 |
| 20260503190817 | 17 | 249 | 3.2 | 4.8 | 0.00 | 0.00 | 0.00 | 35 | 1053.6 |
| 20260503190314 | 17 | 205 | 3.2 | 4.8 | 0.00 | 0.00 | 0.00 | 35 | 1053.7 |
| 20260503185811 | 17 | 190 | 3.2 | 4.8 | 0.00 | 0.00 | 0.00 | 33 | 1053.6 |
| 20260503185307 | 16 | 195 | 4.8 | 6.4 | 0.00 | 0.00 | 0.00 | 36 | 1053.8 |
| 20260503184807 | 16 | 201 | 4.8 | 4.8 | 0.00 | 0.00 | 0.00 | 37 | 1054.1 |
| 20260503184304 | 16 | 205 | 6.4 | 9.7 | 0.00 | 0.00 | 0.00 | 37 | 1054.1 |
| 20260503183759 | 16 | 215 | 6.4 | 9.7 | 0.00 | 0.00 | 0.00 | 40 | 1054.1 |
| 20260503183257 | 16 | 203 | 4.8 | 4.8 | 0.00 | 0.00 | 0.00 | 38 | 1054.1 |
| 20260503182754 | 16 | 194 | 6.4 | 6.4 | 0.00 | 0.00 | 0.00 | 39 | 1054.2 |
| 20260503182253 | 16 | 203 | 4.8 | 6.4 | 0.00 | 0.00 | 0.00 | 34 | 1054.1 |
| 20260503181750 | 16 | 237 | 3.2 | 6.4 | 0.00 | 0.00 | 0.00 | 38 | 1054.4 |
| 20260503181247 | 16 | 213 | 3.2 | 9.7 | 0.00 | 0.00 | 0.00 | 39 | 1054.2 |
| 20260503180743 | 16 | 195 | 8.0 | 9.7 | 0.00 | 0.00 | 0.00 | 37 | 1054.3 |
| 20260503180242 | 16 | 212 | 1.6 | 4.8 | 0.00 | 0.00 | 0.00 | 44 | 1054.5 |
| 20260503175738 | 16 | 201 | 6.4 | 6.4 | 0.00 | 0.00 | 0.00 | 38 | 1054.6 |
| 20260503175236 | 16 | 191 | 6.4 | 6.4 | 0.00 | 0.00 | 0.00 | 35 | 1054.7 |
| 20260503174732 | 16 | 195 | 3.2 | 4.8 | 0.00 | 0.00 | 0.00 | 35 | 1054.7 |
| 20260503174230 | 16 | 210 | 3.2 | 9.7 | 0.00 | 0.00 | 0.00 | 35 | 1055.1 |
| 20260503173730 | 16 | 243 | 0.0 | 6.4 | 0.00 | 0.00 | 0.00 | 44 | 1054.7 |
| 20260503173226 | 15 | 196 | 3.2 | 4.8 | 0.00 | 0.00 | 0.00 | 42 | 1055.1 |
| 20260503172723 | 15 | 191 | 6.4 | 11.3 | 0.00 | 0.00 | 0.00 | 39 | 1055.1 |
| 20260503172220 | 15 | 203 | 6.4 | 6.4 | 0.00 | 0.00 | 0.00 | 40 | 1055.3 |
| 20260503171717 | 15 | 196 | 6.4 | 6.4 | 0.00 | 0.00 | 0.00 | 36 | 1055.3 |
| 20260503171214 | 15 | 191 | 3.2 | 6.4 | 0.00 | 0.00 | 0.00 | 44 | 1055.5 |
| 20260503170711 | 15 | 217 | 3.2 | 4.8 | 0.00 | 0.00 | 0.00 | 36 | 1055.5 |
| 20260503170208 | 15 | 192 | 4.8 | 6.4 | 0.00 | 0.00 | 0.00 | 36 | 1055.6 |
| 20260503160129 | 16 | 203 | 6.4 | 4.8 | 0.00 | 0.00 | 0.00 | 39 | 1056.3 |
| 20260503150559 | 14 | 268 | 3.2 | 3.2 | 0.00 | 0.00 | 0.00 | 43 | 1056.7 |
| 20260503130949 | 8 | 218 | 1.6 | 3.2 | 0.00 | 0.00 | 0.00 | 63 | 1056.5 |
| 20260503130447 | 7 | 225 | 0.0 | 1.6 | 0.00 | 0.00 | 0.00 | 63 | 1056.4 |
| 20260503110343 | 0 | 356 | 0.0 | 0.0 | 0.00 | 0.00 | 0.00 | 94 | 1055.8 |
| 20260503090235 | 0 | 356 | 0.0 | 0.0 | 0.00 | 0.00 | 0.00 | 92 | 1055.2 |
| 20260503081202 | 0 | 356 | 0.0 | 0.0 | 0.00 | 0.00 | 0.00 | 91 | 1054.8 |
| 20260503080657 | 1 | 356 | 0.0 | 0.0 | 0.00 | 0.00 | 0.00 | 90 | 1055.2 |
| 20260503080155 | 1 | 356 | 0.0 | 0.0 | 0.00 | 0.00 | 0.00 | 90 | 1055.1 |
| 20260503072631 | 1 | 356 | 0.0 | 0.0 | 0.00 | 0.00 | 0.00 | 88 | 1054.7 |
| 20260503072128 | 1 | 356 | 0.0 | 0.0 | 0.00 | 0.00 | 0.00 | 89 | 1054.6 |
| 20260503071625 | 1 | 356 | 0.0 | 0.0 | 0.00 | 0.00 | 0.00 | 89 | 1054.7 |
| 20260503071122 | 1 | 356 | 0.0 | 0.0 | 0.00 | 0.00 | 0.00 | 89 | 1054.9 |
| 20260503070619 | 1 | 356 | 0.0 | 0.0 | 0.00 | 0.00 | 0.00 | 89 | 1054.9 |
| 20260503070117 | 1 | 356 | 0.0 | 0.0 | 0.00 | 0.00 | 0.00 | 88 | 1054.7 |
| 20260503055037 | 3 | 10 | 0.0 | 0.0 | 0.00 | 0.00 | 0.00 | 79 | 1054.9 |
| 20260503054533 | 3 | 10 | 0.0 | 0.0 | 0.00 | 0.00 | 0.00 | 78 | 1055.1 |
| 20260503054031 | 3 | 10 | 0.0 | 0.0 | 0.00 | 0.00 | 0.00 | 77 | 1055.2 |
| 20260503053529 | 3 | 10 | 0.0 | 0.0 | 0.00 | 0.00 | 0.00 | 77 | 1055.1 |
| 20260503053026 | 3 | 10 | 0.0 | 0.0 | 0.00 | 0.00 | 0.00 | 79 | 1054.9 |
| 20260503052523 | 3 | 10 | 0.0 | 0.0 | 0.00 | 0.00 | 0.00 | 79 | 1054.9 |
| 20260503052019 | 3 | 10 | 0.0 | 0.0 | 0.00 | 0.00 | 0.00 | 81 | 1055.3 |
| 20260503051515 | 3 | 10 | 0.0 | 0.0 | 0.00 | 0.00 | 0.00 | 78 | 1055.1 |
| 20260503051012 | 3 | 10 | 0.0 | 0.0 | 0.00 | 0.00 | 0.00 | 75 | 1055.2 |
| 20260503050508 | 4 | 10 | 0.0 | 0.0 | 0.00 | 0.00 | 0.00 | 71 | 1055.2 |
| 20260503050006 | 5 | 10 | 0.0 | 0.0 | 0.00 | 0.00 | 0.00 | 70 | 1055.4 |
| 20260503045503 | 5 | 10 | 0.0 | 0.0 | 0.00 | 0.00 | 0.00 | 68 | 1055.2 |
| 20260503045000 | 5 | 10 | 0.0 | 0.0 | 0.00 | 0.00 | 0.00 | 68 | 1055.2 |
| 20260503044457 | 5 | 10 | 0.0 | 0.0 | 0.00 | 0.00 | 0.00 | 67 | 1055.2 |
| 20260503043954 | 5 | 10 | 0.0 | 0.0 | 0.00 | 0.00 | 0.00 | 69 | 1055.2 |
| 20260503043450 | 5 | 10 | 0.0 | 0.0 | 0.00 | 0.00 | 0.00 | 69 | 1055.1 |
| 20260503042947 | 6 | 10 | 0.0 | 0.0 | 0.00 | 0.00 | 0.00 | 67 | 1055.1 |
| 20260503042443 | 6 | 10 | 0.0 | 0.0 | 0.00 | 0.00 | 0.00 | 65 | 1054.9 |
| 20260503041940 | 6 | 10 | 0.0 | 0.0 | 0.00 | 0.00 | 0.00 | 64 | 1055.2 |
| 20260503041437 | 6 | 10 | 0.0 | 0.0 | 0.00 | 0.00 | 0.00 | 65 | 1054.9 |
| 20260503040934 | 6 | 10 | 0.0 | 0.0 | 0.00 | 0.00 | 0.00 | 65 | 1055.1 |
| 20260503040432 | 6 | 10 | 0.0 | 0.0 | 0.00 | 0.00 | 0.00 | 65 | 1054.9 |
| 20260503035929 | 6 | 10 | 0.0 | 0.0 | 0.00 | 0.00 | 0.00 | 64 | 1055.1 |
| 20260503035425 | 6 | 10 | 0.0 | 0.0 | 0.00 | 0.00 | 0.00 | 64 | 1055.1 |
| 20260503034923 | 6 | 10 | 0.0 | 0.0 | 0.00 | 0.00 | 0.00 | 65 | 1054.9 |
| 20260503034421 | 6 | 10 | 0.0 | 0.0 | 0.00 | 0.00 | 0.00 | 68 | 1054.8 |
| 20260503033917 | 6 | 10 | 0.0 | 0.0 | 0.00 | 0.00 | 0.00 | 67 | 1055.1 |
| 20260503033415 | 5 | 10 | 0.0 | 0.0 | 0.00 | 0.00 | 0.00 | 67 | 1054.7 |
| 20260503032913 | 5 | 10 | 0.0 | 0.0 | 0.00 | 0.00 | 0.00 | 70 | 1054.8 |
| 20260503032411 | 5 | 10 | 0.0 | 0.0 | 0.00 | 0.00 | 0.00 | 71 | 1054.8 |
| 20260503031908 | 5 | 10 | 0.0 | 0.0 | 0.00 | 0.00 | 0.00 | 70 | 1054.8 |
| 20260503031406 | 5 | 10 | 0.0 | 0.0 | 0.00 | 0.00 | 0.00 | 70 | 1055.1 |
| 20260503030902 | 6 | 10 | 0.0 | 0.0 | 0.00 | 0.00 | 0.00 | 71 | 1054.7 |
| 20260503030358 | 6 | 10 | 0.0 | 0.0 | 0.00 | 0.00 | 0.00 | 69 | 1054.9 |
| 20260503025855 | 6 | 10 | 0.0 | 0.0 | 0.00 | 0.00 | 0.00 | 71 | 1054.7 |
| 20260503025353 | 6 | 10 | 0.0 | 0.0 | 0.00 | 0.00 | 0.00 | 69 | 1054.7 |